SL-14 R/B

Satellite information

Favourite Embed

Satellite Type and Status

ROCKET BODYIN ORBIT

Key statistics

Satellite SL-14 R/B at a glance.

Uptime

14034

Days in orbit

Revolutions

≈ 14.9

Per day

Orbit

LEO

Low Earth Orbit

Inclination

82.5

Latest

Satellite identification and parameters

Extended collection of information and parameters for SL-14 R/B.

Object identification

Identified? True

Debris? False

Object name: SL-14 R/B

International designator: 1986-097B

Object number (NORAD): 17192

Object ID (CCSDS): 17192

Country: COMMONWEALTH OF INDEPENDENT STATES (CIS)

Current information (Y/N): Y

RCS size: LARGE

Orbital parameters

Period: 96.934 minutes

Inclination: 82.5071 deg

SMA: 6989.989 km

Apoapsis: 622.323 km

Periapsis: 601.385 km

RAAN: 65.7658 deg

Eccentricy: 0.0014977

Argument of periapsis: 304.3237 deg

Mean anomaly: 228.7447 deg

Mean motion: 14.85552657 rev/day

Mean motion (dot): 0.00000562 rev/day2

B* drag term: 0.000062176 1/REarth

Two-line elements (TLE)

Creation date: May 12, 2025, 2:36 p.m.

Reference frame: TEME

Reference center: EARTH

Epoch: May 12, 2025, 1:30 p.m. UTC

TLE line 0: 0 SL-14 R/B

TLE line 1: 1 17192U 86097B 25132.56309904 .00000562 00000-0 62176-4 0 9998

TLE line 2: 2 17192 82.5071 65.7658 0014977 304.3237 228.7447 14.85552657 76737

Live tracking on map

Real-time ground track for satellite SL-14 R/B.

In-orbit conjunctions

A list of the most updated potential collisions computed for object SL-14 R/B.

Target Orbit TCA Probability of collision Miss distance Type
CZ-6A DEB LEO 2025-04-23 18:53:52 0.0003625193 175.0 (m) DEBRIS
FENGYUN 1C DEB SSO 2024-06-12 02:39:21 0.0002798824 146.0 (m) DEBRIS

Associated space launch

Tselina-R series ELINT satellite

SL-14 R/B was lifted into orbit during the mission ‘Tsiklon-3 | Tselina-R 1’, on board a Tsiklon-3 space rocket.

The launch took place on Dec. 10, 1986, 7:30 a.m. from 32/2.

For more information about the launch, click the button.

Launch to space Tsiklon-3 | Tselina-R 1
Tsiklon-3 | Tselina-R 1

Agency: N/A

Status: Launch Successful

Launch date: Dec. 10, 1986, 7:30 a.m. UTC

Rocket: Tsiklon-3

Launch pad: 32/2

Location: Plesetsk Cosmodrome, Russian Federation

...

Latest news about this satellite

There are no fresh news available about this satellite. Check back as we update our databases every day.


Newsletter sign-up

Weekly statistics, charts and insights to help you stay on top of the space industry.